Regional Weather Roundup
Issued by NWS

Home | Current Version | Previous Version | Graphics & Text | Print | Product List | Glossary Off
Versions: 1 2 3 4 5 6 7 8 9 10 11 12 13 14 15 16 17 18 19 20 21 22 23 24 25 26 27 28 29 30 31 32 33 34 35 36 37 38 39 40 41 42 43 44 45 46 47 48 49 50

000
ASUS43 KMKX 260924
RWRWI

WISCONSIN REGIONAL WEATHER ROUNDUP
NATIONAL WEATHER SERVICE MILWAUKEE/SULLIVAN WI
400 AM CDT SAT JUL 26 2014

NOTE: "FAIR" INDICATES FEW OR NO CLOUDS BELOW 12,000 FEET WITH NO
SIGNIFICANT WEATHER AND/OR OBSTRUCTIONS TO VISIBILITY.

WIZ001-002-006>008-014>016-023>028-261000-
NORTHWEST WISCONSIN

CITY           SKY/WX    TMP DP  RH WIND       PRES   REMARKS
SUPERIOR ARPT  PTCLDY    68  67  97 SW6       29.75S
ASHLAND        CLOUDY    69  66  90 SW6       29.76S
HAYWARD        CLOUDY    69  67  93 SW7       29.79F
SIREN          CLEAR     70  68  94 SW5       29.79S
RICE LAKE      CLOUDY    69  67  92 CALM      29.82S
LADYSMITH      LGT RAIN  68  66  92 SW3       29.83S
EAU CLAIRE     CLOUDY    69  67  93 SW6       29.80F
MENOMONIE      CLOUDY    69  67  93 S5        29.81S
NEW RICHMOND   CLOUDY    71  70  97 S6        29.80F
OSCEOLA        CLOUDY    71  71 100 S6        29.82S
$$

WIZ003>005-009-010-017-018-261000-
NORTH CENTRAL WISCONSIN

CITY           SKY/WX    TMP DP  RH WIND       PRES   REMARKS
WOODRUFF       CLOUDY    64  62  93 SW6       29.82S FOG
RHINELANDER    LGT RAIN  63  62  97 SW8       29.83S FOG
EAGLE RIVER    HVY RAIN  64  64 100 SW5       29.82S
LAND O LAKES   CLOUDY    65  63  91 SW3       29.82S
PHILLIPS       CLOUDY    65  64  98 SW7       29.80F
TOMAHAWK       CLOUDY    63  62  94 CALM      29.83S FOG
MEDFORD        DRIZZLE   64  63  97 SW6       29.83S
MERRILL        DRIZZLE   65  64  96 SW6       29.83S
$$

WIZ029-030-035-036-043>047-261000-
CENTRAL WISCONSIN

CITY           SKY/WX    TMP DP  RH WIND       PRES   REMARKS
WAUSAU         CLOUDY    65  62  90 SW3       29.82F
MOSINEE        CLOUDY    63  63 100 SW5       29.85R
MARSHFIELD     CLOUDY    65  63  93 SW5       29.83F
STEVENS POINT  CLOUDY    62  60  94 CALM      29.84F
WAUPACA        CLOUDY    66  63  91 W3        29.84S
WAUTOMA        CLOUDY    64  62  93 SW3       29.84F
WISC RAPIDS    CLOUDY    66  63  90 SW7       29.83F
CAMP DOUGLAS   MOCLDY    67  67  99 SW6       29.83F
$$

WIZ011>013-019>022-031-037>040-048>050-261000-
NORTHEAST WISCONSIN

CITY           SKY/WX    TMP DP  RH WIND       PRES   REMARKS
ANTIGO         CLOUDY    63  62  96 SW7       29.83F
STURGEON BAY   MOCLDY    64  61  88 S6        29.83S
GREEN BAY      CLOUDY    65  62  90 S3        29.82F
MANITOWOC      PTCLDY    65  61  87 SW6       29.83F
APPLETON       MOCLDY    63  61  94 SW5       29.84F
CLINTONVILLE   CLOUDY    64  61  88 CALM      29.83F
OSHKOSH        CLEAR     63  61  93 S7        29.83F FOG
$$

WIZ032>034-041-042-053>061-261000-
SOUTHWEST WISCONSIN

CITY           SKY/WX    TMP DP  RH WIND       PRES   REMARKS
LA CROSSE      CLOUDY    69  65  86 S7        29.82F
SPARTA         CLOUDY    66  63  91 SW5       29.84F
VIROQUA        CLOUDY    64  64 100 SE5       29.84F
BOSCOBEL       CLOUDY    67  62  84 CALM      29.84F
PRAIRIE DU CHI CLOUDY    66  62  87 CALM      29.82F
PLATTEVILLE    MOCLDY    65  63  91 SE7       29.85F
$$

WIZ056-057-062-063-064-067-068-261000-
SOUTH CENTRAL WISCONSIN

CITY           SKY/WX    TMP DP  RH WIND       PRES   REMARKS
BARABOO/DELLS  CLOUDY    65  60  83 SW7       29.84F
LONE ROCK      CLOUDY    69  64  84 CALM      29.85F
WATERTOWN      CLOUDY    60  60  98 CALM      29.85F
MADISON        CLOUDY    67  61  81 CALM      29.86F
MIDDLETON      CLOUDY    66  63  91 SW3       29.86F
MONROE         CLOUDY    64  61  88 S6        29.86S
JANESVILLE     CLOUDY    68  59  73 CALM      29.85F
$$

WIZ051-052-058>065-066-070>072-261000-
SOUTHEAST WISCONSIN

CITY           SKY/WX    TMP DP  RH WIND       PRES   REMARKS
MILWAUKEE      PTCLDY    64  59  83 SW3       29.86F
WAUKESHA       CLEAR     57  55  94 CALM      29.87F
MILWAUKEE/TIMM CLEAR     61  55  82 CALM      29.86F
RACINE         CLEAR     61  58  90 CALM      29.88F
BURLINGTON     CLOUDY    58  58  98 CALM      29.86F
KENOSHA        CLOUDY    61  59  93 CALM      29.87F
FOND DU LAC    CLEAR     62  59  90 SW7       29.84F
SHEBOYGAN      CLEAR     62  59  90 SW7       29.84F
WEST BEND      CLEAR     61  55  82 CALM      29.85F
JUNEAU         CLEAR     60  58  92 S3        29.87F FOG
$$

LSZ147-162-261000-
LAKE SUPERIOR

STATION/POSITION TIME  TEMP    WIND        PRES    WAVE
                       AIR SEA DIR/SP/G            HT/PER
                 (UTC) (F)     (DEG/KT/KT) (MB)    (FT/S)
W MID LAKE BUOY  0850   53 49  170/  8/  8 1006.8F   0
PORT WING        0800   70     190/  3/  4 1007.8S
SAXON HARBOR     0800          190/  3/  8 1007.8F
$$

LMZ867-665-643>646-261000-
LAKE MICHIGAN

STATION/POSITION TIME  TEMP    WIND        PRES    WAVE
                       AIR SEA DIR/SP/G            HT/PER
                 (UTC) (F)     (DEG/KT/KT) (MB)    (FT/S)
N MID LAKE BUOY  0850   60 57  220/  8/ 10 1009.0F   2/ 5
NORTHPORT PIER   0700   62     160/  2/  5 1010.2F
KEWAUNEE LAKESHO 0800   54     180/  6/  7 1011.3F
SHEBOYGAN LAKESH 0900   66     220/  6/  7 1010.6F
PORT WASHINGTON  0800   65     260/  4/  6 1011.9F
ATWATER BUOY     0900   64     230/  6     1012.0F
MILWAUKEE LAKESH 0900   65     220/  7/  8   N/A
S MID LAKE BUOY  0850   63 61  190/  6/  8 1011.6F   1
KENOSHA   LAKESH 0900   65     220/  3/  3 1011.2S
$$

TC  - TEMPERATURE IN CELSIUS
VSB - VISIBILITY IN STATUTE MILES
WCI - WIND CHILL INDEX
HX  - HEAT INDEX




USA.gov is the U.S. government's official web portal to all federal, state and local government web resources and services.